Regional Weather Roundup
Issued by NWS New Orleans/Baton Rouge, LA

Home | Current Version | Previous Version | Text Only | Print | Product List | Glossary Off
Versions: 1 2 3 4 5 6 7 8 9 10 11 12 13 14 15 16 17 18 19 20 21 22 23 24 25 26 27 28 29 30 31 32 33 34 35 36 37 38 39 40 41 42 43 44 45 46 47 48 49 50

460
ASUS44 KLIX 230910
RWRLIX
NEW ORLEANS REGIONAL WEATHER ROUNDUP
NATIONAL WEATHER SERVICE NEW ORLEANS LA
300 AM CST SUN NOV 23 2014

NOTE: "FAIR" INDICATES FEW OR NO CLOUDS BELOW 12,000 FEET WITH NO
      SIGNIFICANT WEATHER AND/OR OBSTRUCTIONS TO VISIBILITY.
      SKY/WX - SKY CONDITION AND SIGNIFICANT WEATHER.
      TMP - AIR TEMPERATURE.     DP    - DEWPOINT TEMPERATURE.
      RH  - RELATIVE HUMIDITY.   PRES  - PRESSURE.
      HI  - HEAT INDEX.          WCI   - WIND CHILL INDEX.

*  THESE STATIONS ARE NOT NWS OR FAA STATIONS AND ARE NOT UNDER
   NWS QUALITY CONTROL.

LAZ038-040-048-061>063-065>067-069-231000-
SOUTHEAST LOUISIANA

CITY           SKY/WX    TMP DP  RH WIND       PRES   REMARKS
N.O. AUDUBON     N/A     61  61 100 MISG        N/A
N.O. INTL ARPT CLOUDY    63  60  90 E12G18    29.77F
N.O. LAKEFRONT CLOUDY    62  59  90 E14       29.78F
N.O. DOWNTOWN* CLOUDY    61  55  82 E13G18    29.78F
SLIDELL        CLOUDY    64  61  90 E7        29.79F
BATON ROUGE    CLOUDY    64  61  90 E14       29.78S
BOOTHVILLE     PTCLDY    65  65 100 SE6       29.78F
BELLE CHASSE   CLOUDY    62  59  90 E9        29.77F
BOGALUSA*        N/A     63  60  88 E5        29.83F FOG
NEW ROADS*     LGT RAIN  64  62  94 SE12G17   29.77S
GONZALES*      CLOUDY    63  63 100 E3        29.77S
HAMMOND*       CLOUDY    64  61  88 E8        29.80F
HOUMA*         CLOUDY    65  64  97 E12G18    29.76F
PORT FOURCHON* PTSUNNY   68  66  94 SE15      29.79F

$$

MSZ070-080>082-231000-
SOUTHERN MISSISSIPPI

CITY           SKY/WX    TMP DP  RH WIND       PRES   REMARKS
MCCOMB         CLOUDY    61  59  93 E8        29.79F
GULFPORT       CLOUDY    63  62  97 E12       29.80F
BILOXI         CLOUDY    62  62 100 E8        29.81F
PASCAGOULA     CLOUDY    64  62  93 NE7       29.82F

$$

COASTAL OBSERVATIONS
LAKE AND NEARSHORE STATIONS

STATION/POSITION TIME  TEMP    WIND        PRES    WAVE
                       AIR SEA DIR/SP/G            HT/PER
                 (UTC) (F)     (DEG/KT/KT) (MB)    (FT/S)
PASCAGOULA       0900   64      50/  9/ 12 1009.3
WAVELAND YACHT   0900   63     100/ 13/ 18 1008.1
GRAND ISLE       0900   67 62  120/  5/  9 1008.5
SOUTHWEST PASS   0900   69 72              1008.6
NEW CANAL        0900   62 54   80/  5/ 12 1008.5
SHELL BEACH      0900   59 53   80/ 11/ 15 1008.5

OFFSHORE STATIONS

STATION/POSITION TIME  TEMP    WIND        PRES    WAVE
                       AIR SEA DIR/SP/G            HT/PER
                 (UTC) (F)     (DEG/KT/KT) (MB)    (FT/S)
64 S DAUPHIN ISL 0752   73 72  150/ 16/ 17 1009.3    8/ 8

$$




USA.gov is the U.S. government's official web portal to all federal, state and local government web resources and services.